Regional Weather Roundup
Issued by NWS Albany, NY

Home | Current Version | Previous Version | Text Only | Print | Product List | Glossary On
Versions: 1 2 3 4 5 6 7 8 9 10 11 12 13 14 15 16 17 18 19 20 21 22 23 24 25 26 27 28 29 30 31 32 33 34 35 36 37 38 39 40 41 42 43 44 45 46 47 48 49 50
000
ASUS41 KALY 270810
RWRALY

NEW YORK STATE HOURLY WEATHER ROUNDUP
NATIONAL WEATHER SERVICE ALBANY NY
400 AM EDT FRI MAR 27 2015

NOTE: "FAIR" INDICATES FEW OR NO CLOUDS BELOW 12,000 FEET WITH NO
SIGNIFICANT WEATHER AND/OR NO OBSTRUCTIONS TO VISIBILITY.

NYZ032-033-038>043-046>054-057>066-NYZ062>081-270900-
EAST


CITY           SKY/WX    TMP DP  RH WIND       PRES   REMARKS
ALBANY         CLOUDY    37  32  82 NW3       29.73F
GLENS FALLS    FOG       35  33  92 CALM      29.73R VSB 1/4
POUGHKEEPSIE   CLOUDY    39  36  89 CALM      29.71F
MONTGOMERY     CLOUDY    39  36  89 NW5       29.70F
WHITE PLAINS   LGT RAIN  40  36  86 N7        29.70R
ISLIP          LGT RAIN  42  39  89 NW12      29.69R
NEW YORK CITY  LGT RAIN  43  39  86 N7        29.72R
CENTRAL PARK   LGT RAIN  42  40  92 VRB6      29.75R
$$

NYZ005>009-017-018-044>046-055-056-270900-
CENTRAL


CITY           SKY/WX    TMP DP  RH WIND       PRES   REMARKS
FULTON         CLOUDY    35  31  85 W9        29.78S WCI  28
SYRACUSE       CLOUDY    35  33  92 W8        29.77S FOG     WCI  29
ROME           FOG       32  32 100 CALM      29.78S VSB 1/2
ELMIRA         CLOUDY    31  31 100 SW5       29.80R WCI  26
BINGHAMTON     CLOUDY    32  31  96 W5        29.73F FOG     WCI  27
MONTICELLO     CLOUDY    34  34 100 NW9       29.70F WCI  26
$$

NYZ026>034-041>043-270900-
NORTH


CITY           SKY/WX    TMP DP  RH WIND       PRES   REMARKS
WATERTOWN      CLOUDY    35  33  92 SW6       29.76R FOG     WCI  30
FORT DRUM      NOT AVBL
MASSENA        LGT SNOW  33  32  96 SW6       29.73F WCI  28
SARANAC LAKE   CLOUDY    32  31  96 W3        29.65F
PLATTSBURGH    CLOUDY    32  32 100 CALM      29.71F FOG
$$

NYZ001>004-010>016-019>021-270900-
WEST


CITY           SKY/WX    TMP DP  RH WIND       PRES   REMARKS
NIAGARA FALLS  CLOUDY    32  27  81 W9        29.82R WCI  24
BUFFALO        CLOUDY    31  30  96 SW6       29.82R FOG     WCI  25
DUNKIRK        CLOUDY    32  30  92 SW9       29.85R WCI  24
JAMESTOWN      CLOUDY    30  27  86 W6        29.81R WCI  24
WELLSVILLE     CLOUDY    31  25  78 W8        29.78R WCI  23
ROCHESTER      CLOUDY    34  31  88 W8        29.79S WCI  27
PENN YAN       CLOUDY    34  29  82 W5        29.77F WCI  30
$$

             KEY
       WCI = WIND CHILL INDEX
       VSB = VISIBILITY
       HX  = HEAT INDEX
$$


USA.gov is the U.S. government's official web portal to all federal, state and local government web resources and services.